Location: Bullfrog
(37.5121°N, 110.7330°W)
Time: 12:46:23
(UTC-07:00)

Hubble Space Telescope - Pass Details

Date: 27 January 2026
Orbit: 478 x 480 km, 28.5° (Epoch: 5 February)

Event Time Altitude Azimuth Distance (km) Brightness Sun altitude
Rises 19:25:25 0° 249° (WSW) 2,510 5.6 -20.6°
Reaches altitude 10° 19:28:01 10° 232° (SW) 1,633 4.1 -21.1°
Maximum altitude 19:30:48 20° 184° (S) 1,150 2.5 -21.7°
Enters shadow 19:31:16 19° 173° (S) 1,166 2.5 -21.8°
